La Crosse, WI

12:58 PM CDT on October 17, 2017 (GMT -0500)
La Crosse Municipal

Weather History for KLSE - January, 2013

Change the Weather History Date:

Thursday, January 17, 2013

  Actual Average Record
Temperature  
Mean Temperature 18 °F 17 °F  
Max Temperature 26 °F 26 °F 56 °F (1894)
Min Temperature 10 °F 8 °F -30 °F (1873)
Degree Days  
Heating Degree Days 47 48  
Month to date heating degree days 733 812  
Since 1 July heating degree days 3423 3656  
Cooling Degree Days 0 0  
Month to date cooling degree days 0 0  
Year to date cooling degree days 0 0  
Moisture  
Dew Point 5 °F    
Average Humidity 58    
Maximum Humidity 74    
Minimum Humidity 41    
Precipitation  
Precipitation T in 0.04 in 0.42 in (1897)
Month to date precipitation 0.16 0.60  
Year to date precipitation 0.16 0.60  
Snow  
Snow T in 0.40 in 4.40 in (2008)
Month to date snowfall 0.1 5.3  
Since 1 July snowfall 18.5 20.9  
Snow Depth 0.00 in    
Sea Level Pressure  
Sea Level Pressure 30.40 in    
Wind  
Wind Speed 7 mph (NW)    
Max Wind Speed 17 mph    
Max Gust Speed 20 mph    
Visibility 10 miles    
Events      
T = Trace of Precipitation, MM = Missing Value Source: NWS Daily Summary

Daily Weather History Graph

Daily Weather History Graph

Search for Another Location

Airport or City:

Trip Planner

Search our weather history database for the weather conditions in past years. The results will help you decide how hot, cold, wet, or windy it might be!

Date:

Astronomy

Jan. 17, 2013 Rise Set
Actual Time 7:34 AM CST 4:56 PM CST
Civil Twilight 7:03 AM CST 5:27 PM CST
Nautical Twilight 6:27 AM CST 6:03 PM CST
Astronomical Twilight 5:53 AM CST 6:37 PM CST
Moon 10:27 AM CST No Moon Set
Length of Visible Light 10h 24m
Length of Day
9h 21m
Waxing Crescent, 38% of the Moon is Illuminated
Jan 17
Waxing Crescent
Jan 18
First Quarter
Jan 26
Full
Feb 3
Last Quarter
Feb 10
New

Hourly Weather History & Observations

Time (CST) Temp. Windchill Dew Point Humidity Pressure Visibility Wind Dir Wind Speed Gust Speed Precip Events Conditions
1:53 AM 19.0 °F 5.0 °F 1.9 °F 47% 30.27 in 10.0 mi NW 15.0 mph - N/A   Clear
2:53 AM 17.1 °F 6.6 °F 1.9 °F 52% 30.31 in 10.0 mi NW 8.1 mph - N/A   Clear
3:53 AM 15.1 °F 2.5 °F -0.9 °F 49% 30.32 in 10.0 mi NNW 10.4 mph - N/A   Clear
4:53 AM 14.0 °F 3.9 °F -2.0 °F 49% 30.33 in 10.0 mi NW 6.9 mph - N/A   Clear
5:53 AM 12.9 °F 1.6 °F 1.0 °F 59% 30.36 in 10.0 mi NNW 8.1 mph - N/A   Clear
6:53 AM 12.9 °F 1.6 °F -0.9 °F 54% 30.38 in 10.0 mi NNW 8.1 mph - N/A   Clear
7:53 AM 10.9 °F 0.2 °F -0.0 °F 61% 30.41 in 10.0 mi NNW 6.9 mph - N/A   Clear
8:53 AM 15.1 °F 5.2 °F -0.0 °F 51% 30.44 in 10.0 mi WNW 6.9 mph - N/A   Clear
9:53 AM 16.0 °F 8.8 °F -2.0 °F 45% 30.46 in 10.0 mi West 4.6 mph - N/A   Clear
10:53 AM 19.0 °F 9.0 °F 1.0 °F 46% 30.45 in 10.0 mi WNW 8.1 mph - N/A   Scattered Clouds
11:53 AM 19.9 °F 10.1 °F 1.0 °F 44% 30.44 in 10.0 mi NW 8.1 mph - N/A   Overcast
12:53 PM 21.9 °F 13.4 °F 1.9 °F 42% 30.41 in 10.0 mi WSW 6.9 mph - N/A   Overcast
1:53 PM 24.1 °F 13.7 °F 6.1 °F 46% 30.39 in 10.0 mi WNW 10.4 mph - N/A   Mostly Cloudy
2:53 PM 24.1 °F 16.0 °F 7.0 °F 48% 30.39 in 10.0 mi WNW 6.9 mph - N/A   Overcast
3:21 PM 24.8 °F 16.1 °F 10.4 °F 54% 30.33 in 10.0 mi WNW 8.1 mph - N/A   Overcast
3:53 PM 25.0 °F 17.1 °F 10.9 °F 55% 30.40 in 10.0 mi WNW 6.9 mph - N/A   Overcast
4:19 PM 24.8 °F 13.4 °F 10.4 °F 54% 30.34 in 10.0 mi WNW 12.7 mph - N/A   Scattered Clouds
4:53 PM 19.9 °F 11.1 °F 10.0 °F 65% 30.42 in 10.0 mi NNW 6.9 mph - N/A   Clear
5:53 PM 19.0 °F 11.1 °F 10.0 °F 68% 30.43 in 10.0 mi NW 5.8 mph - N/A   Clear
6:53 PM 16.0 °F 8.8 °F 9.0 °F 74% 30.44 in 10.0 mi WNW 4.6 mph - N/A   Clear
7:53 PM 17.1 °F 7.6 °F 8.1 °F 68% 30.46 in 10.0 mi NNW 6.9 mph - N/A   Clear
8:53 PM 15.1 °F 7.7 °F 7.0 °F 70% 30.44 in 10.0 mi North 4.6 mph - N/A   Clear
9:53 PM 14.0 °F - 6.1 °F 71% 30.45 in 10.0 mi Calm Calm - N/A   Clear
10:53 PM 17.1 °F - 10.0 °F 74% 30.44 in 10.0 mi Calm Calm - N/A   Overcast
11:53 PM 17.1 °F - 10.0 °F 74% 30.42 in 10.0 mi Calm Calm - N/A   Clear